Погода в Озере-Карачи

Россия / Новосибирская область     55°20′09″N   76°56′28″E
В апреле 2022 года жителям России запретили посещать сайт meteo.paraplan.net по решению Генеральной прокуратуры. Аудитория сайта уменьшилась в 10 раз. Владельцы сайта не видят смысла в поддержке погодного сервера в таких условиях. Сайт будет закрыт в октябре.
темп.,
°C
ветер,
м/с
пор.,
м/с
влажн.,
%
обл.,
%
осадки,
мм/ч
давл.,
гПа
погр.,
м
25 сентября, вс
вс2501:00+15зюз347096 0.0 101163
04:00+14с1269100 0.0 101012
07:00+11ссв4773100 0.0 1011174
10:00+12св4563100 0.0 1010252
13:00+13с4556100 0.1 1011391
16:00+10с5677100 0.1 1011430
19:00+7ссв61188100 0.6 1012476
22:00+5ссв6118760 0.0 1013468
26 сентября, пн
пн2601:00+3ссв61084100 0.0 1014522
04:00+2ссв4989100 0.0 1015440
07:00+1ссв4985100 0.0 1016345
10:00+4св5763100 0.0 1016809
13:00+7св5647100 0.0 10161193
16:00+8всв5641100 0.0 10141344
19:00+7всв5643100 0.0 10141133
22:00+5в5849100 0.0 1013753
27 сентября, вт
вт2701:00+3всв595799 0.0 1012459
04:00+2всв586893 0.0 1012378
07:00+2всв5875100 0.0 1011458
10:00+1всв5882100 0.1 1011458
13:00+4в5773100 0.3 1010764
16:00+3всв5791100 0.9 1011622
19:00+3св6990100 1.3 1012693
22:00+2св5108784 0.1 1013604
28 сентября, ср
ср2801:00+2ссв597079 0.1 1013580
04:00−2с59815 0.0 1015237
07:00−3с410855 0.0 1017229
10:00−1с58685 0.0 1018402
13:00+4с45445 0.0 10181295
16:00+6ссз5638100 0.0 10191804
19:00+4ссз3641100 0.0 1019236
22:00+1ссз344999 0.0 102185
29 сентября, чт
чт2901:00−2ссв336863 0.0 102134
04:00−3с22755 0.0 102221
07:00−4ссз338216 0.0 102245
10:00−1ссз346522 0.0 1023269
13:00+4ссз3443100 0.0 10221588
16:00+5сз3435100 0.0 10221869
19:00+3ссз354079 0.0 1022145
22:000ссз33555 0.0 102332